Location: Unspecified
(45.3712°N, 0.6436°E)
Time: 13:03:44
(UTC+02:00)

ISS - Visible Passes

Search period start: 22 October 2019 00:00
Search period end: 31 October 2019 23:00
Orbit: 411 x 421 km, 51.6° (Epoch: 22 October)

Date Brightness Start Highest point End Pass type
(mag) Time Alt. Az. Time Alt. Az. Time Alt. Az.
23 Oct -0.8 07:36:05 10° S 07:38:20 17° SE 07:40:35 10° E visible
24 Oct -0.3 06:49:47 10° SE 06:49:58 10° SE 06:50:09 10° SE visible
25 Oct -2.4 07:34:25 10° SSW 07:37:35 40° SE 07:40:47 10° ENE visible
26 Oct -1.7 06:46:44 13° S 06:49:07 25° SE 06:51:56 10° E visible
27 Oct -1.0 05:00:47 15° SE 05:00:47 15° SE 05:02:46 10° E visible
27 Oct -3.8 06:33:42 11° WSW 06:37:00 86° NNW 06:40:23 10° ENE visible
28 Oct -3.4 05:47:33 43° SSW 05:48:24 61° SSE 05:51:44 10° ENE visible
29 Oct -1.4 05:01:15 24° E 05:01:15 24° E 05:02:59 10° ENE visible
29 Oct -3.2 06:34:10 16° W 06:36:32 44° NNW 06:39:47 10° NE visible
30 Oct -3.7 05:47:45 62° NNW 05:47:49 62° NNW 05:51:11 10° ENE visible
31 Oct -1.2 05:01:14 21° ENE 05:01:14 21° ENE 05:02:31 10° ENE visible
31 Oct -2.6 06:34:08 17° WNW 06:36:09 30° N 06:39:12 10° NE visible
